Regional Weather Roundup
Issued by NWS Sioux Falls, SD

Home | Current Version | Previous Version | Text Only | Print | Product List | Glossary On
Versions: 1 2 3 4 5 6 7 8 9 10 11 12 13 14 15 16 17 18 19 20 21 22 23 24 25 26 27 28 29 30 31 32 33 34 35 36 37 38 39 40 41 42 43 44 45 46 47 48 49 50
669
ASUS43 KFSD 221410
RWRFSD

WEATHER ROUNDUP FOR SE SOUTH DAKOTA/SW MINNESOTA/NW IOWA
NATIONAL WEATHER SERVICE SIOUX FALLS SD
900 AM CDT TUE MAY 22 2018

NOTE: "FAIR" INDICATES FEW OR NO CLOUDS BELOW 12,000 FEET WITH NO
SIGNIFICANT WEATHER AND OR OBSTRUCTIONS TO VISIBILITY.


SDZ038>040-050-052>070-221500-
SOUTHEAST SOUTH DAKOTA

CITY           SKY/WX    TMP DP  RH WIND       PRES   REMARKS
BROOKINGS      MOSUNNY   56  56 100 SE7       30.04S
CHAMBERLAIN    SUNNY     66  64  91 SE8       29.95S
HURON          MOSUNNY   63  57  81 MISG      29.98R
MADISON        FAIR      57  57 100 S8        30.03S
MITCHELL       SUNNY     66  59  78 SE12G20   29.98S
SIOUX FALLS    CLOUDY    63  58  83 E5        30.02S
WINNER         FAIR      69  58  67 SE12      29.94F
YANKTON        CLOUDY    64  61  90 E7        29.98F
$$

MNZ071-072-080-081-089-090-097-098-221500-
SOUTHWEST MINNESOTA

CITY           SKY/WX    TMP DP  RH WIND       PRES   REMARKS
FAIRMONT       PTSUNNY   59  59 100 S3        30.07R FOG
JACKSON        FOG       59  59 100 SE6       30.07R VSB 1/2
LUVERNE        CLOUDY    57  55  94 CALM      30.05R
MARSHALL       CLOUDY    57  57 100 S7        30.06R FOG
MONTEVIDEO     FOG       57  57 100 S6        30.05R VSB 1/4
PIPESTONE      CLOUDY    61  57  88 S6        30.04S
REDWOOD FALLS  CLOUDY    58  58 100 S6        30.06R FOG
TRACY          CLOUDY    58  58 100 S3        30.05R FOG
WINDOM         CLOUDY    59  45  58 S3        30.06R HAZE
WORTHINGTON    MOSUNNY   59  58  96 SE3       30.06S
$$

IAZ001>003-012>014-020>022-031-032-NEZ013-014-SDZ071-221500-
NORTHWEST IOWA

CITY           SKY/WX    TMP DP  RH WIND       PRES   REMARKS
CHEROKEE       CLOUDY    62  62 100 CALM      30.04S
DENISON        CLOUDY    63  61  94 CALM      30.06R
ESTHERVILLE    CLOUDY    59  59 100 S8        30.06R FOG
ORANGE CITY    PTSUNNY   66  61  82 SE5       30.04S
SHELDON        CLOUDY    66  64  94 SE8       30.03S
SIOUX CITY     CLOUDY    60  58  92 SE7       30.02S
SPENCER        CLOUDY    59  58  96 E5        30.06R FOG
STORM LAKE     CLOUDY    63  61  94 SE6       30.05R
$$

ABBREVIATIONS USED IN REMARKS
   TC - TEMPERATURE IN CELSIUS
  WCI - WIND CHILL INDEX
   HX - HEAT INDEX
  VSB - VISIBILITY





USA.gov is the U.S. government's official web portal to all federal, state and local government web resources and services.